MB7UEL Weather Reports


Display with metric or nautical units.
time (UTC)temp
F
wind
direction
speed
MPH
gust
MPH
rain 1hr
in
rain 24hr
in
rain mn
in
humidity
%
barometer
mb
20260507023506 44 170 10.0 14.0 0.00 0.00 0.00 1016.0
20260507020506 44 170 10.0 14.0 0.00 0.00 0.00 1016.0
20260507013506 45 165 11.0 15.0 0.00 0.00 0.00 1016.0
20260507010506 45 165 11.0 15.0 0.00 0.00 0.00 1016.0
20260507003506 45 161 11.0 16.0 0.00 0.00 0.00 1016.0
20260507000506 45 163 12.0 16.0 0.00 0.00 0.00 1016.0
20260506233505 45 159 13.0 18.0 0.00 0.00 0.00 1016.0
20260506230505 45 159 13.0 18.0 0.00 0.00 0.00 1016.0
20260506223505 46 155 14.0 19.0 0.00 0.00 0.00 1016.0
20260506220505 46 155 14.0 19.0 0.00 0.00 0.00 1016.0
20260506213505 47 149 15.0 20.0 0.00 0.00 0.00 1017.0
20260506210505 47 149 15.0 20.0 0.00 0.00 0.00 1017.0
20260506203505 47 141 15.0 21.0 0.00 0.00 0.00 1017.0
20260506200505 47 141 15.0 21.0 0.00 0.00 0.00 1017.0
20260506193506 47 130 16.0 21.0 0.00 0.00 0.00 1017.0
20260506190506 47 130 16.0 21.0 0.00 0.00 0.00 1017.0
20260506183506 48 121 15.0 19.0 0.00 0.00 0.00 1016.0
20260506180506 48 116 13.0 18.0 0.00 0.00 0.00 1016.0
20260506173506 48 111 13.0 16.0 0.00 0.00 0.00 1016.0
20260506170506 48 111 13.0 16.0 0.00 0.00 0.00 1016.0
20260506163505 48 98 12.0 17.0 0.00 0.00 0.00 1017.0
20260506160506 48 98 12.0 17.0 0.00 0.00 0.00 1017.0
20260506153505 47 85 14.0 19.0 0.00 0.00 0.00 1017.0
20260506150505 47 85 14.0 19.0 0.00 0.00 0.00 1017.0
20260506143505 46 80 14.0 19.0 0.00 0.00 0.00 1018.0
20260506140505 46 80 14.0 19.0 0.00 0.00 0.00 1018.0
20260506133505 45 79 13.0 17.0 0.00 0.00 0.00 1018.0
20260506130505 45 79 13.0 17.0 0.00 0.00 0.00 1018.0
20260506123506 44 80 11.0 15.0 0.00 0.00 0.00 1018.0
20260506120506 44 81 11.0 16.0 0.00 0.00 0.00 1019.0
20260506113506 45 88 9.0 13.0 0.00 0.00 0.00 1019.0
20260506110506 45 88 9.0 13.0 0.00 0.00 0.00 1019.0
20260506103506 45 87 8.0 11.0 0.00 0.00 0.00 1019.0
20260506100506 45 87 8.0 11.0 0.00 0.00 0.00 1019.0
20260506093506 45 75 8.0 11.0 0.00 0.00 0.00 1019.0
20260506090506 45 75 8.0 11.0 0.00 0.00 0.00 1019.0
20260506083505 44 64 8.0 12.0 0.00 0.00 0.00 1019.0
20260506080505 44 64 8.0 12.0 0.00 0.00 0.00 1019.0
20260506073505 44 52 9.0 13.0 0.00 0.00 0.00 1019.0
20260506070505 44 52 9.0 13.0 0.00 0.00 0.00 1019.0
20260506060505 44 38 10.0 14.0 0.00 0.00 0.00 1019.0
20260506050505 44 27 10.0 14.0 0.00 0.00 0.00 1019.0
20260506043506 44 26 7.0 11.0 0.00 0.00 0.00 1019.0
20260506040506 44 26 7.0 11.0 0.00 0.00 0.00 1019.0
20260506033506 45 49 5.0 9.0 0.00 0.00 0.00 1019.0
20260506030506 45 49 5.0 9.0 0.00 0.00 0.00 1019.0